Year,Month,Day,Hour,Minute,Value (Times are PST for temperature in C)
2016,04,18,00,00,9.60
2016,04,18,00,01,9.60
2016,04,18,00,02,9.60
2016,04,18,00,03,9.60
2016,04,18,00,04,9.60
2016,04,18,00,05,9.60
2016,04,18,00,06,9.50
2016,04,18,00,07,9.50
2016,04,18,00,08,9.50
2016,04,18,00,09,9.50
2016,04,18,00,10,9.50
2016,04,18,00,11,9.50
2016,04,18,00,12,9.50
2016,04,18,00,13,9.50
2016,04,18,00,14,9.50
2016,04,18,00,15,9.50
2016,04,18,00,16,9.40
2016,04,18,00,17,9.40
2016,04,18,00,18,9.40
2016,04,18,00,19,9.40
2016,04,18,00,20,9.40
2016,04,18,00,21,9.30
2016,04,18,00,22,9.30
2016,04,18,00,23,9.30
2016,04,18,00,24,9.20
2016,04,18,00,25,9.10
2016,04,18,00,26,9.10
2016,04,18,00,27,9.00
2016,04,18,00,28,8.90
2016,04,18,00,29,8.90
2016,04,18,00,30,8.90
2016,04,18,00,31,8.80
2016,04,18,00,32,8.80
2016,04,18,00,33,8.80
2016,04,18,00,34,8.80
2016,04,18,00,35,8.80
2016,04,18,00,36,8.80
2016,04,18,00,37,8.80
2016,04,18,00,38,8.80
2016,04,18,00,39,8.80
2016,04,18,00,40,8.80
2016,04,18,00,41,8.70
2016,04,18,00,42,8.70
2016,04,18,00,43,8.60
2016,04,18,00,44,8.60
2016,04,18,00,45,8.60
2016,04,18,00,46,8.60
2016,04,18,00,47,8.50
2016,04,18,00,48,8.50
2016,04,18,00,49,8.50
2016,04,18,00,50,8.40
2016,04,18,00,51,8.40
2016,04,18,00,52,8.40
2016,04,18,00,53,8.30
2016,04,18,00,54,8.30
2016,04,18,00,55,8.30
2016,04,18,00,56,8.30
2016,04,18,00,57,8.30
2016,04,18,00,58,8.20
2016,04,18,00,59,8.20
2016,04,18,01,00,8.20
2016,04,18,01,01,8.20
2016,04,18,01,02,8.20
2016,04,18,01,03,8.20
2016,04,18,01,04,8.20
2016,04,18,01,05,8.20
2016,04,18,01,06,8.10
2016,04,18,01,07,8.10
2016,04,18,01,08,8.10
2016,04,18,01,09,8.10
2016,04,18,01,10,8.10
2016,04,18,01,11,8.10
2016,04,18,01,12,8.10
2016,04,18,01,13,8.10
2016,04,18,01,14,8.00
2016,04,18,01,15,8.00
2016,04,18,01,16,8.00
2016,04,18,01,17,8.10
2016,04,18,01,18,8.20
2016,04,18,01,19,8.20
2016,04,18,01,20,8.20
2016,04,18,01,21,8.20
2016,04,18,01,22,8.20
2016,04,18,01,23,8.20
2016,04,18,01,24,8.10
2016,04,18,01,25,8.10
2016,04,18,01,26,8.10
2016,04,18,01,27,8.10
2016,04,18,01,28,8.10
2016,04,18,01,29,8.00
2016,04,18,01,30,8.00
2016,04,18,01,31,8.00
2016,04,18,01,32,8.00
2016,04,18,01,33,7.90
2016,04,18,01,34,7.90
2016,04,18,01,35,7.90
2016,04,18,01,36,7.90
2016,04,18,01,37,7.90
2016,04,18,01,38,7.90
2016,04,18,01,39,7.90
2016,04,18,01,40,7.90
2016,04,18,01,41,7.90
2016,04,18,01,42,7.90
2016,04,18,01,43,7.90
2016,04,18,01,44,7.90
2016,04,18,01,45,7.90
2016,04,18,01,46,7.90
2016,04,18,01,47,7.90
2016,04,18,01,48,7.90
2016,04,18,01,49,8.00
2016,04,18,01,50,8.00
2016,04,18,01,51,8.10
2016,04,18,01,52,8.10
2016,04,18,01,53,8.10
2016,04,18,01,54,8.10
2016,04,18,01,55,8.10
2016,04,18,01,56,8.10
2016,04,18,01,57,8.10
2016,04,18,01,58,8.00
2016,04,18,01,59,8.00
2016,04,18,02,00,7.90
2016,04,18,02,01,7.80
2016,04,18,02,02,7.80
2016,04,18,02,03,7.80
2016,04,18,02,04,7.80
2016,04,18,02,05,7.70
2016,04,18,02,06,7.70
2016,04,18,02,07,7.80
2016,04,18,02,08,7.80
2016,04,18,02,09,7.90
2016,04,18,02,10,7.90
2016,04,18,02,11,7.90
2016,04,18,02,12,7.90
2016,04,18,02,13,7.90
2016,04,18,02,14,7.90
2016,04,18,02,15,7.90
2016,04,18,02,16,7.90
2016,04,18,02,17,7.90
2016,04,18,02,18,7.90
2016,04,18,02,19,7.90
2016,04,18,02,20,7.90
2016,04,18,02,21,7.90
2016,04,18,02,22,7.90
2016,04,18,02,23,7.90
2016,04,18,02,24,7.90
2016,04,18,02,25,7.90
2016,04,18,02,26,7.90
2016,04,18,02,27,7.90
2016,04,18,02,28,7.90
2016,04,18,02,29,7.90
2016,04,18,02,30,7.80
2016,04,18,02,31,7.80
2016,04,18,02,32,7.80
2016,04,18,02,33,7.80
2016,04,18,02,34,7.80
2016,04,18,02,35,7.80
2016,04,18,02,36,7.80
2016,04,18,02,37,7.80
2016,04,18,02,38,7.80
2016,04,18,02,39,7.80
2016,04,18,02,40,7.80
2016,04,18,02,41,7.70
2016,04,18,02,42,7.70
2016,04,18,02,43,7.70
2016,04,18,02,44,7.70
2016,04,18,02,45,7.70
2016,04,18,02,46,7.70
2016,04,18,02,47,7.70
2016,04,18,02,48,7.70
2016,04,18,02,49,7.60
2016,04,18,02,50,7.60
2016,04,18,02,51,7.60
2016,04,18,02,52,7.60
2016,04,18,02,53,7.50
2016,04,18,02,54,7.50
2016,04,18,02,55,7.40
2016,04,18,02,56,7.40
2016,04,18,02,57,7.50
2016,04,18,02,58,7.50
2016,04,18,02,59,7.50
2016,04,18,03,00,7.50
2016,04,18,03,01,7.50
2016,04,18,03,02,7.40
2016,04,18,03,03,7.40
2016,04,18,03,04,7.40
2016,04,18,03,05,7.40
2016,04,18,03,06,7.40
2016,04,18,03,07,7.40
2016,04,18,03,08,7.40
2016,04,18,03,09,7.40
2016,04,18,03,10,7.40
2016,04,18,03,11,7.40
2016,04,18,03,12,7.40
2016,04,18,03,13,7.40
2016,04,18,03,14,7.40
2016,04,18,03,15,7.30
2016,04,18,03,16,7.40
2016,04,18,03,17,7.40
2016,04,18,03,18,7.40
2016,04,18,03,19,7.40
2016,04,18,03,20,7.40
2016,04,18,03,21,7.40
2016,04,18,03,22,7.40
2016,04,18,03,23,7.40
2016,04,18,03,24,7.40
2016,04,18,03,25,7.40
2016,04,18,03,26,7.40
2016,04,18,03,27,7.40
2016,04,18,03,28,7.40
2016,04,18,03,29,7.40
2016,04,18,03,30,7.40
2016,04,18,03,31,7.40
2016,04,18,03,32,7.40
2016,04,18,03,33,7.50
2016,04,18,03,34,7.40
2016,04,18,03,35,7.40
2016,04,18,03,36,7.40
2016,04,18,03,37,7.40
2016,04,18,03,38,7.40
2016,04,18,03,39,7.40
2016,04,18,03,40,7.40
2016,04,18,03,41,7.40
2016,04,18,03,42,7.40
2016,04,18,03,43,7.40
2016,04,18,03,44,7.40
2016,04,18,03,45,7.40
2016,04,18,03,46,7.40
2016,04,18,03,47,7.40
2016,04,18,03,48,7.40
2016,04,18,03,49,7.40
2016,04,18,03,50,7.40
2016,04,18,03,51,7.40
2016,04,18,03,52,7.40
2016,04,18,03,53,7.40
2016,04,18,03,54,7.40
2016,04,18,03,55,7.40
2016,04,18,03,56,7.40
2016,04,18,03,57,7.40
2016,04,18,03,58,7.40
2016,04,18,03,59,7.30
2016,04,18,04,00,7.30
2016,04,18,04,01,7.30
2016,04,18,04,02,7.30
2016,04,18,04,03,7.30
2016,04,18,04,04,7.30
2016,04,18,04,05,7.30
2016,04,18,04,06,7.30
2016,04,18,04,07,7.30
2016,04,18,04,08,7.30
2016,04,18,04,09,7.40
2016,04,18,04,10,7.40
2016,04,18,04,11,7.40
2016,04,18,04,12,7.50
2016,04,18,04,13,7.50
2016,04,18,04,14,7.50
2016,04,18,04,15,7.50
2016,04,18,04,16,7.50
2016,04,18,04,17,7.50
2016,04,18,04,18,7.50
2016,04,18,04,19,7.60
2016,04,18,04,20,7.60
2016,04,18,04,21,7.70
2016,04,18,04,22,7.70
2016,04,18,04,23,7.70
2016,04,18,04,24,7.70
2016,04,18,04,25,7.70
2016,04,18,04,26,7.60
2016,04,18,04,27,7.50
2016,04,18,04,28,7.50
2016,04,18,04,29,7.50
2016,04,18,04,30,7.60
2016,04,18,04,31,7.60
2016,04,18,04,32,7.60
2016,04,18,04,33,7.60
2016,04,18,04,34,7.60
2016,04,18,04,35,7.60
2016,04,18,04,36,7.60
2016,04,18,04,37,7.60
2016,04,18,04,38,7.50
2016,04,18,04,39,7.50
2016,04,18,04,40,7.50
2016,04,18,04,41,7.50
2016,04,18,04,42,7.40
2016,04,18,04,43,7.40
2016,04,18,04,44,7.40
2016,04,18,04,45,7.40
2016,04,18,04,46,7.40
2016,04,18,04,47,7.40
2016,04,18,04,48,7.40
2016,04,18,04,49,7.40
2016,04,18,04,50,7.40
2016,04,18,04,51,7.50
2016,04,18,04,52,7.50
2016,04,18,04,53,7.40
2016,04,18,04,54,7.40
2016,04,18,04,55,7.40
2016,04,18,04,56,7.40
2016,04,18,04,57,7.40
2016,04,18,04,58,7.40
2016,04,18,04,59,7.40
2016,04,18,05,00,7.40
2016,04,18,05,01,7.40
2016,04,18,05,02,7.40
2016,04,18,05,03,7.30
2016,04,18,05,04,7.30
2016,04,18,05,05,7.30
2016,04,18,05,06,7.30
2016,04,18,05,07,7.30
2016,04,18,05,08,7.30
2016,04,18,05,09,7.30
2016,04,18,05,10,7.30
2016,04,18,05,11,7.30
2016,04,18,05,12,7.30
2016,04,18,05,13,7.30
2016,04,18,05,14,7.30
2016,04,18,05,15,7.30
2016,04,18,05,16,7.20
2016,04,18,05,17,7.20
2016,04,18,05,18,7.20
2016,04,18,05,19,7.20
2016,04,18,05,20,7.20
2016,04,18,05,21,7.20
2016,04,18,05,22,7.20
2016,04,18,05,23,7.20
2016,04,18,05,24,7.10
2016,04,18,05,25,7.10
2016,04,18,05,26,7.10
2016,04,18,05,27,7.10
2016,04,18,05,28,7.10
2016,04,18,05,29,7.10
2016,04,18,05,30,7.10
2016,04,18,05,31,7.10
2016,04,18,05,32,7.10
2016,04,18,05,33,7.10
2016,04,18,05,34,7.10
2016,04,18,05,35,7.10
2016,04,18,05,36,7.20
2016,04,18,05,37,7.20
2016,04,18,05,38,7.20
2016,04,18,05,39,7.20
2016,04,18,05,40,7.20
2016,04,18,05,41,7.20
2016,04,18,05,42,7.20
2016,04,18,05,43,7.30
2016,04,18,05,44,7.30
2016,04,18,05,45,7.30
2016,04,18,05,46,7.30
2016,04,18,05,47,7.30
2016,04,18,05,48,7.30
2016,04,18,05,49,7.30
2016,04,18,05,50,7.30
2016,04,18,05,51,7.30
2016,04,18,05,52,7.30
2016,04,18,05,53,7.30
2016,04,18,05,54,7.30
2016,04,18,05,55,7.30
2016,04,18,05,56,7.40
2016,04,18,05,57,7.40
2016,04,18,05,58,7.40
2016,04,18,05,59,7.40
2016,04,18,06,00,7.30
2016,04,18,06,01,7.30
2016,04,18,06,02,7.30
2016,04,18,06,03,7.30
2016,04,18,06,04,7.20
2016,04,18,06,05,7.20
2016,04,18,06,06,7.10
2016,04,18,06,07,7.10
2016,04,18,06,08,7.10
2016,04,18,06,09,7.00
2016,04,18,06,10,7.00
2016,04,18,06,11,6.90
2016,04,18,06,12,6.90
2016,04,18,06,13,6.90
2016,04,18,06,14,6.90
2016,04,18,06,15,6.80
2016,04,18,06,16,6.80
2016,04,18,06,17,6.80
2016,04,18,06,18,6.80
2016,04,18,06,19,6.80
2016,04,18,06,20,6.70
2016,04,18,06,21,6.70
2016,04,18,06,22,6.70
2016,04,18,06,23,6.70
2016,04,18,06,24,6.70
2016,04,18,06,25,6.70
2016,04,18,06,26,6.70
2016,04,18,06,27,6.70
2016,04,18,06,28,6.80
2016,04,18,06,29,6.80
2016,04,18,06,30,6.80
2016,04,18,06,31,6.90
2016,04,18,06,32,6.90
2016,04,18,06,33,6.90
2016,04,18,06,34,6.90
2016,04,18,06,35,7.00
2016,04,18,06,36,7.00
2016,04,18,06,37,7.00
2016,04,18,06,38,6.90
2016,04,18,06,39,6.90
2016,04,18,06,40,6.90
2016,04,18,06,41,6.90
2016,04,18,06,42,7.00
2016,04,18,06,43,7.10
2016,04,18,06,44,7.10
2016,04,18,06,45,7.10
2016,04,18,06,46,7.10
2016,04,18,06,47,7.10
2016,04,18,06,48,7.20
2016,04,18,06,49,7.20
2016,04,18,06,50,7.20
2016,04,18,06,51,7.20
2016,04,18,06,52,7.20
2016,04,18,06,53,7.20
2016,04,18,06,54,7.20
2016,04,18,06,55,7.20
2016,04,18,06,56,7.20
2016,04,18,06,57,7.20
2016,04,18,06,58,7.20
2016,04,18,06,59,7.20
2016,04,18,07,00,7.20
2016,04,18,07,01,7.30
2016,04,18,07,02,7.30
2016,04,18,07,03,7.30
2016,04,18,07,04,7.30
2016,04,18,07,05,7.30
2016,04,18,07,06,7.40
2016,04,18,07,07,7.40
2016,04,18,07,08,7.40
2016,04,18,07,09,7.50
2016,04,18,07,10,7.50
2016,04,18,07,11,7.60
2016,04,18,07,12,7.60
2016,04,18,07,13,7.60
2016,04,18,07,14,7.60
2016,04,18,07,15,7.70
2016,04,18,07,16,7.70
2016,04,18,07,17,7.70
2016,04,18,07,18,7.70
2016,04,18,07,19,7.70
2016,04,18,07,20,7.70
2016,04,18,07,21,7.80
2016,04,18,07,22,7.80
2016,04,18,07,23,7.90
2016,04,18,07,24,7.90
2016,04,18,07,25,8.00
2016,04,18,07,26,8.00
2016,04,18,07,27,8.10
2016,04,18,07,28,8.20
2016,04,18,07,29,8.30
2016,04,18,07,30,8.30
2016,04,18,07,31,8.40
2016,04,18,07,32,8.40
2016,04,18,07,33,8.40
2016,04,18,07,34,8.50
2016,04,18,07,35,8.60
2016,04,18,07,36,8.60
2016,04,18,07,37,8.70
2016,04,18,07,38,8.70
2016,04,18,07,39,8.80
2016,04,18,07,40,8.80
2016,04,18,07,41,8.80
2016,04,18,07,42,8.80
2016,04,18,07,43,8.90
2016,04,18,07,44,8.90
2016,04,18,07,45,9.00
2016,04,18,07,46,9.00
2016,04,18,07,47,9.10
2016,04,18,07,48,9.20
2016,04,18,07,49,9.20
2016,04,18,07,50,9.20
2016,04,18,07,51,9.20
2016,04,18,07,52,9.20
2016,04,18,07,53,9.30
2016,04,18,07,54,9.30
2016,04,18,07,55,9.40
2016,04,18,07,56,9.40
2016,04,18,07,57,9.50
2016,04,18,07,58,9.50
2016,04,18,07,59,9.60
2016,04,18,08,00,9.60
2016,04,18,08,01,9.60
2016,04,18,08,02,9.60
2016,04,18,08,03,9.70
2016,04,18,08,04,9.80
2016,04,18,08,05,9.90
2016,04,18,08,06,10.00
2016,04,18,08,07,10.10
2016,04,18,08,08,10.20
2016,04,18,08,09,10.20
2016,04,18,08,10,10.30
2016,04,18,08,11,10.40
2016,04,18,08,12,10.60
2016,04,18,08,13,10.70
2016,04,18,08,14,10.80
2016,04,18,08,15,10.90
2016,04,18,08,16,11.10
2016,04,18,08,17,11.20
2016,04,18,08,18,11.30
2016,04,18,08,19,11.30
2016,04,18,08,20,11.40
2016,04,18,08,21,11.50
2016,04,18,08,22,11.50
2016,04,18,08,23,11.60
2016,04,18,08,24,11.60
2016,04,18,08,25,11.70
2016,04,18,08,26,11.80
2016,04,18,08,27,11.90
2016,04,18,08,28,11.90
2016,04,18,08,29,12.00
2016,04,18,08,30,12.10
2016,04,18,08,31,12.10
2016,04,18,08,32,12.20
2016,04,18,08,33,12.30
2016,04,18,08,34,12.30
2016,04,18,08,35,12.40
2016,04,18,08,36,12.50
2016,04,18,08,37,12.50
2016,04,18,08,38,12.60
2016,04,18,08,39,12.70
2016,04,18,08,40,12.70
2016,04,18,08,41,12.80
2016,04,18,08,42,12.80
2016,04,18,08,43,12.90
2016,04,18,08,44,12.90
2016,04,18,08,45,13.00
2016,04,18,08,46,12.90
2016,04,18,08,47,12.90
2016,04,18,08,48,12.90
2016,04,18,08,49,12.90
2016,04,18,08,50,12.90
2016,04,18,08,51,12.90
2016,04,18,08,52,13.00
2016,04,18,08,53,13.00
2016,04,18,08,54,13.00
2016,04,18,08,55,13.10
2016,04,18,08,56,13.10
2016,04,18,08,57,13.20
2016,04,18,08,58,13.20
2016,04,18,08,59,13.20
2016,04,18,09,00,13.30
2016,04,18,09,01,13.30
2016,04,18,09,02,13.30
2016,04,18,09,03,13.30
2016,04,18,09,04,13.30
2016,04,18,09,05,13.30
2016,04,18,09,06,13.30
2016,04,18,09,07,13.30
2016,04,18,09,08,13.20
2016,04,18,09,09,13.20
2016,04,18,09,10,13.10
2016,04,18,09,11,13.10
2016,04,18,09,12,12.90
2016,04,18,09,13,12.90
2016,04,18,09,14,12.80
2016,04,18,09,15,12.80
2016,04,18,09,16,12.80
2016,04,18,09,17,12.80
2016,04,18,09,18,12.80
2016,04,18,09,19,12.70
2016,04,18,09,20,12.80
2016,04,18,09,21,12.80
2016,04,18,09,22,12.80
2016,04,18,09,23,12.80
2016,04,18,09,24,12.90
2016,04,18,09,25,12.90
2016,04,18,09,26,12.90
2016,04,18,09,27,13.00
2016,04,18,09,28,13.00
2016,04,18,09,29,13.10
2016,04,18,09,30,13.10
2016,04,18,09,31,13.10
2016,04,18,09,32,13.20
2016,04,18,09,33,13.20
2016,04,18,09,34,13.20
2016,04,18,09,35,13.20
2016,04,18,09,36,13.20
2016,04,18,09,37,13.30
2016,04,18,09,38,13.30
2016,04,18,09,39,13.30
2016,04,18,09,40,13.30
2016,04,18,09,41,13.30
2016,04,18,09,42,13.20
2016,04,18,09,43,13.20
2016,04,18,09,44,13.20
2016,04,18,09,45,13.20
2016,04,18,09,46,13.20
2016,04,18,09,47,13.20
2016,04,18,09,48,13.20
2016,04,18,09,49,13.20
2016,04,18,09,50,13.10
2016,04,18,09,51,13.10
2016,04,18,09,52,13.10
2016,04,18,09,53,13.10
2016,04,18,09,54,13.10
2016,04,18,09,55,13.10
2016,04,18,09,56,13.00
2016,04,18,09,57,13.00
2016,04,18,09,58,12.90
2016,04,18,09,59,12.90
2016,04,18,10,00,12.90
2016,04,18,10,01,12.80
2016,04,18,10,02,12.80
2016,04,18,10,03,12.80
2016,04,18,10,04,12.70
2016,04,18,10,05,12.70
2016,04,18,10,06,12.60
2016,04,18,10,07,12.60
2016,04,18,10,08,12.60
2016,04,18,10,09,12.50
2016,04,18,10,10,12.50
2016,04,18,10,11,12.40
2016,04,18,10,12,12.30
2016,04,18,10,13,12.20
2016,04,18,10,14,12.20
2016,04,18,10,15,12.10
2016,04,18,10,16,12.10
2016,04,18,10,17,12.10
2016,04,18,10,18,12.10
2016,04,18,10,19,12.10
2016,04,18,10,20,12.10
2016,04,18,10,21,12.10
2016,04,18,10,22,12.10
2016,04,18,10,23,12.10
2016,04,18,10,24,12.10
2016,04,18,10,25,12.10
2016,04,18,10,26,12.20
2016,04,18,10,27,12.20
2016,04,18,10,28,12.30
2016,04,18,10,29,12.30
2016,04,18,10,30,12.30
2016,04,18,10,31,12.40
2016,04,18,10,32,12.50
2016,04,18,10,33,12.60
2016,04,18,10,34,12.60
2016,04,18,10,35,12.70
2016,04,18,10,36,12.80
2016,04,18,10,37,12.80
2016,04,18,10,38,12.90
2016,04,18,10,39,13.00
2016,04,18,10,40,13.10
2016,04,18,10,41,13.20
2016,04,18,10,42,13.20
2016,04,18,10,43,13.30
2016,04,18,10,44,13.30
2016,04,18,10,45,13.30
2016,04,18,10,46,13.30
2016,04,18,10,47,13.40
2016,04,18,10,48,13.40
2016,04,18,10,49,13.40
2016,04,18,10,50,13.40
2016,04,18,10,51,13.50
2016,04,18,10,52,13.50
2016,04,18,10,53,13.50
2016,04,18,10,54,13.50
2016,04,18,10,55,13.50
2016,04,18,10,56,13.50
2016,04,18,10,57,13.60
2016,04,18,10,58,13.60
2016,04,18,10,59,13.60
2016,04,18,11,00,13.70
2016,04,18,11,01,13.70
2016,04,18,11,02,13.70
2016,04,18,11,03,13.70
2016,04,18,11,04,13.80
2016,04,18,11,05,13.80
2016,04,18,11,06,13.90
2016,04,18,11,07,13.90
2016,04,18,11,08,13.90
2016,04,18,11,09,14.00
2016,04,18,11,10,13.90
2016,04,18,11,11,13.90
2016,04,18,11,12,13.90
2016,04,18,11,13,14.00
2016,04,18,11,14,14.00
2016,04,18,11,15,14.10
2016,04,18,11,16,14.10
2016,04,18,11,17,14.10
2016,04,18,11,18,14.20
2016,04,18,11,19,14.20
2016,04,18,11,20,14.30
2016,04,18,11,21,14.30
2016,04,18,11,22,14.30
2016,04,18,11,23,14.40
2016,04,18,11,24,14.40
2016,04,18,11,25,14.50
2016,04,18,11,26,14.50
2016,04,18,11,27,14.50
2016,04,18,11,28,14.50
2016,04,18,11,29,14.40
2016,04,18,11,30,14.40
2016,04,18,11,31,14.40
2016,04,18,11,32,14.40
2016,04,18,11,33,14.30
2016,04,18,11,34,14.30
2016,04,18,11,35,14.30
2016,04,18,11,36,14.30
2016,04,18,11,37,14.20
2016,04,18,11,38,14.20
2016,04,18,11,39,14.10
2016,04,18,11,40,14.10
2016,04,18,11,41,14.10
2016,04,18,11,42,14.10
2016,04,18,11,43,14.10
2016,04,18,11,44,14.10
2016,04,18,11,45,14.10
2016,04,18,11,46,14.10
2016,04,18,11,47,14.10
2016,04,18,11,48,14.10
2016,04,18,11,49,14.20
2016,04,18,11,50,14.20
2016,04,18,11,51,14.20
2016,04,18,11,52,14.30
2016,04,18,11,53,14.30
2016,04,18,11,54,14.30
2016,04,18,11,55,14.40
2016,04,18,11,56,14.50
2016,04,18,11,57,14.50
2016,04,18,11,58,14.60
2016,04,18,11,59,14.70
2016,04,18,12,00,14.70
2016,04,18,12,01,14.70
2016,04,18,12,02,14.80
2016,04,18,12,03,14.80
2016,04,18,12,04,14.80
2016,04,18,12,05,14.80
2016,04,18,12,06,14.80
2016,04,18,12,07,14.80
2016,04,18,12,08,14.80
2016,04,18,12,09,14.80
2016,04,18,12,10,14.90
2016,04,18,12,11,14.90
2016,04,18,12,12,15.00
2016,04,18,12,13,15.00
2016,04,18,12,14,15.00
2016,04,18,12,15,15.10
2016,04,18,12,16,15.10
2016,04,18,12,17,15.10
2016,04,18,12,18,15.10
2016,04,18,12,19,15.20
2016,04,18,12,20,15.20
2016,04,18,12,21,15.30
2016,04,18,12,22,15.50
2016,04,18,12,23,15.60
2016,04,18,12,24,15.80
2016,04,18,12,25,15.90
2016,04,18,12,26,16.00
2016,04,18,12,27,16.10
2016,04,18,12,28,16.20
2016,04,18,12,29,16.30
2016,04,18,12,30,16.40
2016,04,18,12,31,16.40
2016,04,18,12,32,16.50
2016,04,18,12,33,16.50
2016,04,18,12,34,16.50
2016,04,18,12,35,16.50
2016,04,18,12,36,16.50
2016,04,18,12,37,16.50
2016,04,18,12,38,16.50
2016,04,18,12,39,16.50
2016,04,18,12,40,16.50
2016,04,18,12,41,16.50
2016,04,18,12,42,16.50
2016,04,18,12,43,16.60
2016,04,18,12,44,16.50
2016,04,18,12,45,16.40
2016,04,18,12,46,16.40
2016,04,18,12,47,16.30
2016,04,18,12,48,16.30
2016,04,18,12,49,16.30
2016,04,18,12,50,16.20
2016,04,18,12,51,16.20
2016,04,18,12,52,16.20
2016,04,18,12,53,16.20
2016,04,18,12,54,16.10
2016,04,18,12,55,16.10
2016,04,18,12,56,16.00
2016,04,18,12,57,16.00
2016,04,18,12,58,15.90
2016,04,18,12,59,15.90
2016,04,18,13,00,15.80
2016,04,18,13,01,15.90
2016,04,18,13,02,15.90
2016,04,18,13,03,15.90
2016,04,18,13,04,15.90
2016,04,18,13,05,15.90
2016,04,18,13,06,16.00
2016,04,18,13,07,16.00
2016,04,18,13,08,16.00
2016,04,18,13,09,16.00
2016,04,18,13,10,16.00
2016,04,18,13,11,16.10
2016,04,18,13,12,16.10
2016,04,18,13,13,16.20
2016,04,18,13,14,16.20
2016,04,18,13,15,16.30
2016,04,18,13,16,16.30
2016,04,18,13,17,16.30
2016,04,18,13,18,16.30
2016,04,18,13,19,16.30
2016,04,18,13,20,16.40
2016,04,18,13,21,16.40
2016,04,18,13,22,16.50
2016,04,18,13,23,16.50
2016,04,18,13,24,16.60
2016,04,18,13,25,16.60
2016,04,18,13,26,16.60
2016,04,18,13,27,16.50
2016,04,18,13,28,16.40
2016,04,18,13,29,16.30
2016,04,18,13,30,16.30
2016,04,18,13,31,16.20
2016,04,18,13,32,16.10
2016,04,18,13,33,16.00
2016,04,18,13,34,15.90
2016,04,18,13,35,15.90
2016,04,18,13,36,15.90
2016,04,18,13,37,15.90
2016,04,18,13,38,15.90
2016,04,18,13,39,15.80
2016,04,18,13,40,15.80
2016,04,18,13,41,15.80
2016,04,18,13,42,15.70
2016,04,18,13,43,15.70
2016,04,18,13,44,15.70
2016,04,18,13,45,15.80
2016,04,18,13,46,15.80
2016,04,18,13,47,15.80
2016,04,18,13,48,15.80
2016,04,18,13,49,15.80
2016,04,18,13,50,15.80
2016,04,18,13,51,15.80
2016,04,18,13,52,15.80
2016,04,18,13,53,15.80
2016,04,18,13,54,15.80
2016,04,18,13,55,15.90
2016,04,18,13,56,15.90
2016,04,18,13,57,15.90
2016,04,18,13,58,16.00
2016,04,18,13,59,16.10
2016,04,18,14,00,16.10
2016,04,18,14,01,16.10
2016,04,18,14,02,16.10
2016,04,18,14,03,16.20
2016,04,18,14,04,16.30
2016,04,18,14,05,16.30
2016,04,18,14,06,16.40
2016,04,18,14,07,16.50
2016,04,18,14,08,16.60
2016,04,18,14,09,16.70
2016,04,18,14,10,16.90
2016,04,18,14,11,17.00
2016,04,18,14,12,16.90
2016,04,18,14,13,16.90
2016,04,18,14,14,16.80
2016,04,18,14,15,16.80
2016,04,18,14,16,16.80
2016,04,18,14,17,16.80
2016,04,18,14,18,16.80
2016,04,18,14,19,16.80
2016,04,18,14,20,16.90
2016,04,18,14,21,16.90
2016,04,18,14,22,16.90
2016,04,18,14,23,17.00
2016,04,18,14,24,17.00
2016,04,18,14,25,17.10
2016,04,18,14,26,17.10
2016,04,18,14,27,17.10
2016,04,18,14,28,17.10
2016,04,18,14,29,17.10
2016,04,18,14,30,17.10
2016,04,18,14,31,17.10
2016,04,18,14,32,17.20
2016,04,18,14,33,17.20
2016,04,18,14,34,17.20
2016,04,18,14,35,17.20
2016,04,18,14,36,17.10
2016,04,18,14,37,17.10
2016,04,18,14,38,17.00
2016,04,18,14,39,17.00
2016,04,18,14,40,16.90
2016,04,18,14,41,16.90
2016,04,18,14,42,16.80
2016,04,18,14,43,16.80
2016,04,18,14,44,16.80
2016,04,18,14,45,16.70
2016,04,18,14,46,16.70
2016,04,18,14,47,16.70
2016,04,18,14,48,16.70
2016,04,18,14,49,16.70
2016,04,18,14,50,16.70
2016,04,18,14,51,16.80
2016,04,18,14,52,16.90
2016,04,18,14,53,17.00
2016,04,18,14,54,17.00
2016,04,18,14,55,17.10
2016,04,18,14,56,17.10
2016,04,18,14,57,17.10
2016,04,18,14,58,17.10
2016,04,18,14,59,17.10
2016,04,18,15,00,17.10
2016,04,18,15,01,17.10
2016,04,18,15,02,17.10
2016,04,18,15,03,17.10
2016,04,18,15,04,17.20
2016,04,18,15,05,17.20
2016,04,18,15,06,17.30
2016,04,18,15,07,17.40
2016,04,18,15,08,17.60
2016,04,18,15,09,17.70
2016,04,18,15,10,17.80
2016,04,18,15,11,17.90
2016,04,18,15,12,17.90
2016,04,18,15,13,18.00
2016,04,18,15,14,18.10
2016,04,18,15,15,18.20
2016,04,18,15,16,18.30
2016,04,18,15,17,18.30
2016,04,18,15,18,18.40
2016,04,18,15,19,18.50
2016,04,18,15,20,18.60
2016,04,18,15,21,18.70
2016,04,18,15,22,18.70
2016,04,18,15,23,18.80
2016,04,18,15,24,18.80
2016,04,18,15,25,19.00
2016,04,18,15,26,19.00
2016,04,18,15,27,19.10
2016,04,18,15,28,19.20
2016,04,18,15,29,19.20
2016,04,18,15,30,19.10
2016,04,18,15,31,19.00
2016,04,18,15,32,19.00
2016,04,18,15,33,18.90
2016,04,18,15,34,18.80
2016,04,18,15,35,18.70
2016,04,18,15,36,18.70
2016,04,18,15,37,18.80
2016,04,18,15,38,18.80
2016,04,18,15,39,18.90
2016,04,18,15,40,18.90
2016,04,18,15,41,18.90
2016,04,18,15,42,18.90
2016,04,18,15,43,18.90
2016,04,18,15,44,19.00
2016,04,18,15,45,19.00
2016,04,18,15,46,19.00
2016,04,18,15,47,18.90
2016,04,18,15,48,18.90
2016,04,18,15,49,18.90
2016,04,18,15,50,18.90
2016,04,18,15,51,18.90
2016,04,18,15,52,18.90
2016,04,18,15,53,18.90
2016,04,18,15,54,19.00
2016,04,18,15,55,19.00
2016,04,18,15,56,19.10
2016,04,18,15,57,19.10
2016,04,18,15,58,19.20
2016,04,18,15,59,19.20
2016,04,18,16,00,19.30
2016,04,18,16,01,19.30
2016,04,18,16,02,19.40
2016,04,18,16,03,19.40
2016,04,18,16,04,19.50
2016,04,18,16,05,19.60
2016,04,18,16,06,19.70
2016,04,18,16,07,19.80
2016,04,18,16,08,19.80
2016,04,18,16,09,19.90
2016,04,18,16,10,20.00
2016,04,18,16,11,20.10
2016,04,18,16,12,20.20
2016,04,18,16,13,20.20
2016,04,18,16,14,20.30
2016,04,18,16,15,20.30
2016,04,18,16,16,20.40
2016,04,18,16,17,20.40
2016,04,18,16,18,20.50
2016,04,18,16,19,20.60
2016,04,18,16,20,20.60
2016,04,18,16,21,20.70
2016,04,18,16,22,20.70
2016,04,18,16,23,20.80
2016,04,18,16,24,20.90
2016,04,18,16,25,20.90
2016,04,18,16,26,20.90
2016,04,18,16,27,20.80
2016,04,18,16,28,20.60
2016,04,18,16,29,20.40
2016,04,18,16,30,20.20
2016,04,18,16,31,20.10
2016,04,18,16,32,20.00
2016,04,18,16,33,19.80
2016,04,18,16,34,19.70
2016,04,18,16,35,19.60
2016,04,18,16,36,19.60
2016,04,18,16,37,19.50
2016,04,18,16,38,19.40
2016,04,18,16,39,19.20
2016,04,18,16,40,19.10
2016,04,18,16,41,19.00
2016,04,18,16,42,18.90
2016,04,18,16,43,18.80
2016,04,18,16,44,18.70
2016,04,18,16,45,18.60
2016,04,18,16,46,18.50
2016,04,18,16,47,18.50
2016,04,18,16,48,18.40
2016,04,18,16,49,18.30
2016,04,18,16,50,18.20
2016,04,18,16,51,18.20
2016,04,18,16,52,18.10
2016,04,18,16,53,18.10
2016,04,18,16,54,18.10
2016,04,18,16,55,18.10
2016,04,18,16,56,18.10
2016,04,18,16,57,18.10
2016,04,18,16,58,18.20
2016,04,18,16,59,18.20
2016,04,18,17,00,18.20
2016,04,18,17,01,18.20
2016,04,18,17,02,18.10
2016,04,18,17,03,18.10
2016,04,18,17,04,18.20
2016,04,18,17,05,18.20
2016,04,18,17,06,18.20
2016,04,18,17,07,18.30
2016,04,18,17,08,18.40
2016,04,18,17,09,18.50
2016,04,18,17,10,18.60
2016,04,18,17,11,18.60
2016,04,18,17,12,18.70
2016,04,18,17,13,18.70
2016,04,18,17,14,18.70
2016,04,18,17,15,18.70
2016,04,18,17,16,18.70
2016,04,18,17,17,18.70
2016,04,18,17,18,18.60
2016,04,18,17,19,18.60
2016,04,18,17,20,18.50
2016,04,18,17,21,18.50
2016,04,18,17,22,18.50
2016,04,18,17,23,18.40
2016,04,18,17,24,18.40
2016,04,18,17,25,18.40
2016,04,18,17,26,18.30
2016,04,18,17,27,18.30
2016,04,18,17,28,18.30
2016,04,18,17,29,18.30
2016,04,18,17,30,18.30
2016,04,18,17,31,18.30
2016,04,18,17,32,18.30
2016,04,18,17,33,18.30
2016,04,18,17,34,18.30
2016,04,18,17,35,18.20
2016,04,18,17,36,18.20
2016,04,18,17,37,18.20
2016,04,18,17,38,18.10
2016,04,18,17,39,18.00
2016,04,18,17,40,18.00